Terminal Aerodrome Forecast
Issued by NWS

Home | Current Version | Previous Version | Text Only | Print | Product List | Glossary On
Versions: 1 2 3 4 5 6 7 8 9 10 11 12 13 14 15 16 17 18 19 20 21 22 23 24 25 26 27 28 29 30 31 32 33
000
FTUS43 KGLD 311126
TAFMCK
TAF
KMCK 311126Z 3112/0112 VRB05KT P6SM SKC
     FM311700 15009KT P6SM FEW300
     FM010000 12009KT P6SM SCT150
     FM010800 VRB05KT P6SM SCT100 BKN150=

USA.gov is the U.S. government's official web portal to all federal, state and local government web resources and services.